[[{"header":{"parameterUnit":"m.s-1","parameterCategory":1,"la1":30.2991,"la2":30.254,"lo1":-89.0895,"lo2":-89.0444,"dy":0.0017,"dx":0.0017,"nx":28,"ny":28,"refTime":"2025-05-19T21:00:00:Z","depth":0,"parameterNumber":2,"parameterNumberName":"U-component_of_WINDS"},"data":[0,0,0,0,0,0,0,0,0,0,0,0,0,0,0,0,0,0,0,0,0,0,0,0,0,0,0,0,0,0,0,0,0,0,0,0,0,0,0,0,0,0,0,0,0,0,0,0,0,0,0,0,0,0,0,0,0,0,2.3534,2.3536,0,2.3715,2.3718,2.372,2.3762,2.3761,2.376,2.3758,2.3951,2.3957,2.3963,0,0,0,0,0,0,0,0,0,0,0,0,0,2.3232,2.3237,2.3534,2.3536,2.3538,2.3715,2.3718,2.372,2.3762,2.3761,2.3759,2.3758,2.3949,2.3956,2.3964,0,0,0,0,0,0,0,0,0,0,0,0,0,2.3383,2.3239,2.3533,2.3581,2.3587,2.3715,2.3718,2.3721,2.3763,2.3761,2.3759,2.3757,2.3946,2.3956,2.3965,2.4061,0,0,2.3994,2.3998,0,0,0,0,0,0,0,0,2.3375,2.3394,2.3571,2.3578,2.3585,2.3714,2.3682,2.3835,2.3763,2.3696,2.3758,2.3756,2.3874,2.3889,2.3928,2.407,2.4078,2.3995,2.4,2.4004,2.4007,0,0,0,0,0,0,0,2.3364,2.3387,2.3606,2.3574,2.3582,2.3595,2.3615,2.3711,2.3794,2.3702,2.3705,2.3726,2.3877,2.3919,2.3933,2.4081,2.3994,2.4003,2.4009,2.4012,2.4314,2.4316,0,0,0,0,0,0,2.3344,2.3378,2.36,2.3611,2.3473,2.3602,2.3624,2.3675,2.3793,2.3809,2.3727,2.3727,2.3903,2.3922,2.394,2.4061,2.4004,2.4013,2.4019,2.4312,2.4315,2.4317,0,0,0,0,0,0,2.3338,2.3364,2.3593,2.3496,2.3526,2.3609,2.3666,2.3679,2.372,2.3812,2.3828,2.3753,2.3903,2.3926,2.4031,2.4068,2.4018,2.4026,2.4309,2.4313,2.4316,2.4303,0,0,0,0,0,0,2.3329,2.3361,2.3396,2.3496,2.3531,2.3678,2.3668,2.3684,2.3735,2.3737,2.3841,2.3856,2.3903,2.4016,2.404,2.408,2.4034,2.4306,2.4311,2.4315,2.43,2.4305,2.431,0,0,0,0,0,2.3318,2.3386,2.3398,2.3424,2.3576,2.368,2.37,2.3751,2.3738,2.3776,2.3835,2.3853,2.406,2.4026,2.4054,2.4097,2.4304,2.4309,2.4314,2.4298,2.4304,2.4309,0,0,0,0,0,0,2.329,2.34,2.3414,2.3516,2.3588,2.3687,2.3735,2.3755,2.3834,2.3833,2.3894,2.3918,2.4018,2.4069,2.4029,2.4198,2.4182,2.4193,2.416,2.4167,2.4172,2.4157,2.4041,0,0,0,0,0,2.3296,2.3369,2.3462,2.3543,2.3578,2.3651,2.3698,2.3731,2.3809,2.384,2.3907,2.3984,2.4067,2.412,2.4201,2.4308,2.4333,2.4352,2.4357,2.436,2.4369,2.4431,2.4441,2.4334,2.4334,2.4334,0,0,2.3308,2.3377,2.342,2.3539,2.3599,2.3675,2.3676,2.3757,2.3815,2.3853,2.3955,2.4007,2.4098,2.4204,2.4254,2.4249,2.4404,2.4367,2.4369,2.4376,2.4437,2.4447,2.4456,2.4338,2.4337,2.4337,0,0,2.337,2.3429,2.3503,2.3563,2.3653,2.3701,2.372,2.3816,2.3851,2.3954,2.3985,2.4057,2.4198,2.4261,2.4312,2.4401,2.4421,2.4426,2.4451,2.4511,2.4519,2.4527,2.4559,2.457,2.4435,2.4435,2.4435,0,2.3374,2.3488,2.354,2.3619,2.3672,2.3709,2.3787,2.3843,2.3956,2.3993,2.3985,2.4164,2.4227,2.435,2.4371,2.4411,2.4436,2.4414,2.4513,2.4522,2.453,2.4561,2.4573,2.4435,2.4435,2.4435,2.4435,0,2.349,2.3569,2.3619,2.3725,2.3784,2.3862,2.3928,2.3982,2.4011,2.406,2.4167,2.4245,2.4343,2.4375,2.4404,2.4502,2.4496,2.45,2.4486,2.4539,2.4569,2.4582,2.4435,2.4435,2.4435,2.4435,0,0,2.3536,2.3671,2.3689,2.3738,2.3842,2.3905,2.3987,2.4081,2.4126,2.4204,2.4275,2.4395,2.44,2.4457,2.4495,2.4548,2.4614,2.4546,2.4549,2.4556,2.4729,2.4724,2.4737,2.4629,2.4631,2.4633,2.4721,0,2.361,2.3754,2.3804,2.3924,2.3999,2.4037,2.4108,2.4181,2.4231,2.4304,2.436,2.4444,2.4443,2.4479,2.4533,2.4594,2.465,2.4589,2.4697,2.47,2.4672,2.4753,2.4748,2.4827,2.4733,2.4735,2.4737,0,2.3715,2.3792,2.3918,2.4014,2.4048,2.411,2.4202,2.4271,2.4356,2.4389,2.4454,2.4488,2.4578,2.4559,2.4685,2.4643,2.4691,2.4728,2.4733,2.4744,2.4721,2.4766,2.4853,2.4864,2.4756,2.4755,2.4753,0,2.3735,2.3872,2.3966,2.4007,2.4121,2.4164,2.4215,2.4297,2.4352,2.4433,2.4469,2.4561,2.4611,2.4683,2.4742,2.4723,2.4863,2.4849,2.4895,2.4893,2.4921,2.4918,2.5016,2.4953,2.4953,2.4953,2.4953,0,2.3812,2.3888,2.3976,2.4034,2.4121,2.418,2.4266,2.4319,2.4393,2.4464,2.4504,2.457,2.4645,2.4722,2.4769,2.4867,2.489,2.492,2.4932,2.4916,2.4912,2.4947,2.4943,2.4956,2.4955,2.4955,2.4954,0,2.3849,2.3911,2.4016,2.4116,2.4143,2.4203,2.429,2.4349,2.4401,2.449,2.4515,2.4597,2.469,2.4757,2.4877,2.4909,2.5014,2.5026,2.4984,2.499,2.5031,2.5026,2.5155,2.5175,2.5098,2.5099,2.51,0,2.3892,2.3952,2.4058,2.4107,2.4157,2.4236,2.4291,2.4353,2.441,2.4513,2.456,2.4655,2.4734,2.4881,2.4953,2.5046,2.506,2.5099,2.5074,2.5057,2.5061,2.5056,2.5063,2.5102,2.5102,2.5103,2.5103,0,2.3964,2.3992,2.4069,2.4158,2.4223,2.4296,2.437,2.4409,2.4485,2.4548,2.4642,2.4703,2.4825,2.492,2.502,2.5075,2.5103,2.5111,2.5126,2.511,2.5083,2.5098,2.4993,2.5107,2.5107,2.5106,2.5106,2.5106,2.4006,2.406,2.4144,2.4229,2.4292,2.4361,2.4421,2.4481,2.456,2.4663,2.4696,2.4794,2.4881,2.5018,2.5075,2.5154,2.5153,2.5175,2.518,2.5185,2.5184,2.5071,2.5173,2.5173,2.5173,2.5173,2.5173,0,2.4078,2.4135,2.4213,2.4315,2.4383,2.4402,2.4486,2.4542,2.4627,2.4704,2.4781,2.4891,2.4984,2.5065,2.5161,2.521,2.5225,2.5233,2.523,2.5242,2.518,2.5156,2.5219,2.5219,2.5219,2.5219,2.5219,2.5219,2.4124,2.4218,2.4257,2.4384,2.4441,2.4535,2.4581,2.4647,2.4709,2.4829,2.4905,2.4957,2.5037,2.514,2.5227,2.5249,2.5283,2.5288,2.5313,2.5252,2.5246,2.5241,2.522,2.5295,2.5295,2.5369,2.5369,2.537]},{"header":{"parameterUnit":"m.s-1","parameterCategory":1,"la1":30.2991,"la2":30.254,"lo1":-89.0895,"lo2":-89.0444,"dy":0.0017,"dx":0.0017,"nx":28,"ny":28,"refTime":"2025-05-19T21:00:00:Z","depth":0,"parameterNumber":3,"parameterNumberName":"V-component_of_WINDS"},"data":[0,0,0,0,0,0,0,0,0,0,0,0,0,0,0,0,0,0,0,0,0,0,0,0,0,0,0,0,0,0,0,0,0,0,0,0,0,0,0,0,0,0,0,0,0,0,0,0,0,0,0,0,0,0,0,0,0,0,2.0951,2.0952,0,2.103,2.1031,2.1032,2.1037,2.1036,2.1035,2.1034,2.1112,2.1115,2.1118,0,0,0,0,0,0,0,0,0,0,0,0,0,2.0799,2.0802,2.0951,2.0952,2.0953,2.103,2.1031,2.1032,2.1037,2.1036,2.1035,2.1034,2.1111,2.1115,2.1118,0,0,0,0,0,0,0,0,0,0,0,0,0,2.087,2.0803,2.0951,2.0964,2.0967,2.103,2.1031,2.1033,2.1037,2.1036,2.1035,2.1033,2.111,2.1115,2.1119,2.1173,0,0,2.1132,2.1134,0,0,0,0,0,0,0,0,2.0866,2.0876,2.0961,2.0964,2.0966,2.1022,2.1007,2.108,2.1038,2.101,2.1034,2.1033,2.1083,2.109,2.1108,2.1177,2.118,2.1133,2.1135,2.1137,2.1138,0,0,0,0,0,0,0,2.0861,2.0873,2.0982,2.0963,2.0965,2.0966,2.0974,2.102,2.1053,2.1013,2.1013,2.1023,2.1084,2.1103,2.1109,2.1181,2.1132,2.1136,2.1139,2.1141,2.1297,2.1299,0,0,0,0,0,0,2.0854,2.0868,2.098,2.0985,2.0912,2.0969,2.0979,2.1006,2.1053,2.1059,2.1024,2.1023,2.1097,2.1104,2.1112,2.1178,2.1137,2.1141,2.1144,2.1296,2.1298,2.1299,0,0,0,0,0,0,2.0851,2.0864,2.0976,2.0927,2.0941,2.0974,2.1003,2.1008,2.1027,2.1061,2.1067,2.1037,2.1096,2.1106,2.1158,2.1181,2.1143,2.1147,2.1294,2.1296,2.1298,2.131,0,0,0,0,0,0,2.0847,2.0863,2.0885,2.0927,2.0944,2.1022,2.1005,2.101,2.1035,2.1034,2.1076,2.1081,2.1096,2.1151,2.1162,2.1186,2.1151,2.1292,2.1295,2.1298,2.1308,2.1313,2.1317,0,0,0,0,0,2.0841,2.0884,2.0886,2.0899,2.0972,2.1023,2.1032,2.1049,2.1037,2.1058,2.108,2.108,2.1177,2.1157,2.1169,2.1194,2.1291,2.1294,2.1297,2.1306,2.1312,2.1317,0,0,0,0,0,0,2.0843,2.089,2.0892,2.0951,2.0983,2.1024,2.1052,2.1055,2.109,2.1088,2.1106,2.1115,2.1166,2.1186,2.1162,2.1249,2.1232,2.1238,2.1234,2.124,2.1244,2.1238,2.1154,0,0,0,0,0,2.085,2.0889,2.0928,2.0975,2.0992,2.1019,2.1042,2.1052,2.1086,2.1099,2.1125,2.1156,2.1194,2.1218,2.1255,2.1311,2.1319,2.1334,2.1339,2.1342,2.1347,2.1377,2.1384,2.131,2.131,2.131,0,0,2.0865,2.0896,2.0919,2.0976,2.1003,2.1041,2.103,2.1072,2.11,2.1105,2.1155,2.1175,2.1212,2.1266,2.1291,2.1283,2.1369,2.1347,2.1349,2.1352,2.1381,2.1388,2.1395,2.1313,2.1312,2.1312,0,0,2.0912,2.094,2.0982,2.1009,2.1049,2.1067,2.1077,2.1118,2.1131,2.1183,2.1187,2.122,2.1285,2.131,2.1332,2.1388,2.1389,2.1399,2.1422,2.1451,2.1457,2.1462,2.1482,2.1488,2.1404,2.1404,2.1404,0,2.0925,2.0985,2.1003,2.1045,2.1069,2.1077,2.1119,2.1144,2.1193,2.1209,2.1201,2.1281,2.1307,2.1366,2.138,2.1398,2.1409,2.1395,2.1455,2.146,2.1466,2.1484,2.1491,2.1405,2.1405,2.1405,2.1405,0,2.0998,2.104,2.1069,2.1118,2.1146,2.1188,2.1211,2.1237,2.1245,2.1263,2.1314,2.1345,2.1387,2.1402,2.141,2.1463,2.1457,2.1452,2.1435,2.1473,2.1491,2.1498,2.1407,2.1406,2.1406,2.1406,0,0,2.1048,2.1107,2.1117,2.1139,2.1184,2.1216,2.1257,2.13,2.1321,2.1355,2.1389,2.1444,2.1439,2.1463,2.1474,2.15,2.1541,2.1491,2.1492,2.1498,2.1601,2.1604,2.1612,2.1542,2.1544,2.1545,2.1597,0,2.1099,2.1175,2.1192,2.1257,2.1294,2.1302,2.1338,2.1368,2.1387,2.142,2.144,2.1478,2.1469,2.1484,2.151,2.1531,2.1562,2.1527,2.1573,2.1575,2.1563,2.1622,2.1626,2.1674,2.1604,2.1606,2.1607,0,2.1169,2.1206,2.1274,2.1314,2.133,2.1362,2.1402,2.1435,2.147,2.1481,2.1508,2.1516,2.1558,2.154,2.1598,2.1574,2.1593,2.1607,2.1609,2.1613,2.1592,2.1627,2.1689,2.1696,2.1618,2.1617,2.1616,0,2.1197,2.1263,2.1313,2.1331,2.1379,2.1401,2.1422,2.1456,2.148,2.1515,2.153,2.1569,2.159,2.1619,2.1637,2.1622,2.1693,2.1676,2.1702,2.1702,2.1716,2.1715,2.1782,2.173,2.173,2.173,2.173,0,2.1252,2.1293,2.1326,2.1356,2.1402,2.1422,2.1466,2.1487,2.1517,2.155,2.1558,2.1589,2.1611,2.1644,2.1658,2.1703,2.1713,2.1722,2.1725,2.1721,2.172,2.1734,2.1731,2.1732,2.1731,2.1731,2.1731,0,2.1291,2.1315,2.1369,2.141,2.1421,2.1453,2.1488,2.1517,2.1535,2.1577,2.1588,2.1617,2.1657,2.1677,2.1727,2.1736,2.1787,2.1788,2.1775,2.1777,2.1801,2.1798,2.188,2.1891,2.1831,2.1832,2.1832,0,2.1324,2.1356,2.1401,2.1425,2.1446,2.1484,2.1509,2.1529,2.1555,2.1597,2.162,2.1661,2.1695,2.1758,2.1782,2.182,2.1822,2.1847,2.1827,2.1822,2.1821,2.1819,2.1822,2.1851,2.1851,2.1852,2.1852,0,2.138,2.1391,2.1427,2.1468,2.1498,2.1531,2.1563,2.1582,2.1607,2.1635,2.1677,2.1703,2.1754,2.1794,2.1833,2.1853,2.1856,2.1858,2.1866,2.1862,2.1854,2.1858,2.1785,2.1856,2.1856,2.1856,2.1855,2.1855,2.1417,2.1446,2.1482,2.1522,2.1549,2.1579,2.1608,2.1631,2.1666,2.171,2.172,2.1763,2.1796,2.185,2.1871,2.1905,2.1899,2.1911,2.1914,2.1916,2.1917,2.1849,2.1912,2.1912,2.1912,2.1912,2.1912,0,2.1473,2.1497,2.1534,2.1579,2.1611,2.1613,2.1649,2.1674,2.1713,2.1744,2.1778,2.1825,2.1864,2.1891,2.1931,2.1952,2.1955,2.1962,2.196,2.1964,2.192,2.1909,2.1959,2.1959,2.1959,2.1959,2.1959,2.1959,2.1506,2.1554,2.1569,2.163,2.1653,2.1697,2.1718,2.1745,2.177,2.1823,2.1856,2.1874,2.1904,2.1945,2.198,2.1987,2.2001,2.2008,2.2015,2.1972,2.1967,2.1963,2.1952,2.2011,2.2011,2.2056,2.2057,2.2057]}]]